| time (UTC) | temp F | wind direction | speed MPH | gust MPH | rain 1hr in | rain 24hr in | rain mn in | humidity % | barometer mb |
| 20260903200028 | 89 | 240 | 2.0 | 7.0 | 0.00 | 0.00 | 0.00 | 64 | 1014.1 |
| 20260903195043 | 89 | 250 | 1.0 | 7.0 | 0.00 | 0.00 | 0.00 | 64 | 1014.4 |
| 20260903194032 | 89 | 259 | 0.0 | 7.0 | 0.00 | 0.00 | 0.00 | 65 | 1014.6 |
| 20260903193026 | 89 | 271 | 2.0 | 9.0 | 0.00 | 0.00 | 0.00 | 64 | 1014.7 |
| 20260903192040 | 89 | 284 | 3.0 | 10.0 | 0.00 | 0.00 | 0.00 | 64 | 1014.8 |
| 20260903191052 | 89 | 313 | 2.0 | 9.0 | 0.00 | 0.00 | 0.00 | 64 | 1015.0 |
| 20260903190017 | 89 | 292 | 3.0 | 11.0 | 0.00 | 0.00 | 0.00 | 63 | 1015.0 |
| 20260903185057 | 89 | 254 | 1.0 | 7.0 | 0.00 | 0.01 | 0.00 | 66 | 1014.9 |
| 20260903184022 | 88 | 300 | 3.0 | 12.0 | 0.00 | 0.01 | 0.00 | 66 | 1015.0 |
| 20260903183016 | 87 | 277 | 3.0 | 8.0 | 0.00 | 0.01 | 0.00 | 70 | 1014.9 |
| 20260903182031 | 87 | 236 | 2.0 | 8.0 | 0.00 | 0.01 | 0.00 | 73 | 1014.9 |
| 20260903181044 | 86 | 262 | 1.0 | 10.0 | 0.00 | 0.01 | 0.00 | 72 | 1015.1 |
| 20260903180038 | 85 | 268 | 4.0 | 10.0 | 0.00 | 0.01 | 0.00 | 73 | 1015.5 |
| 20260903175022 | 84 | 246 | 4.0 | 10.0 | 0.00 | 0.32 | 0.00 | 76 | 1015.5 |
| 20260903174037 | 84 | 257 | 2.0 | 10.0 | 0.00 | 0.32 | 0.00 | 84 | 1015.5 |
| 20260903173040 | 82 | 254 | 3.0 | 9.0 | 0.00 | 0.32 | 0.00 | 87 | 1015.7 |
| 20260903172025 | 81 | 229 | 1.0 | 6.0 | 0.00 | 0.32 | 0.00 | 89 | 1015.7 |
| 20260903171040 | 80 | 287 | 1.0 | 8.0 | 0.00 | 0.32 | 0.00 | 89 | 1015.7 |
| 20260903170036 | 80 | 243 | 0.0 | 4.0 | 0.00 | 0.32 | 0.00 | 90 | 1015.8 |
| 20260903165028 | 79 | 241 | 0.0 | 4.0 | 0.00 | 0.32 | 0.00 | 90 | 1016.0 |
| 20260903164023 | 79 | 242 | 0.0 | 0.0 | 0.00 | 0.32 | 0.00 | 90 | 1015.7 |
| 20260903163038 | 79 | 242 | 0.0 | 2.0 | 0.00 | 0.32 | 0.00 | 90 | 1015.6 |
| 20260903162024 | 79 | 240 | 0.0 | 0.0 | 0.00 | 0.32 | 0.00 | 89 | 1016.8 |
| 20260903161037 | 79 | 240 | 0.0 | 6.0 | 0.00 | 0.32 | 0.00 | 90 | 1017.5 |
| 20260903160034 | 80 | 241 | 2.0 | 8.0 | 0.00 | 0.32 | 0.00 | 90 | 1018.2 |
| 20260903155027 | 80 | 271 | 2.0 | 10.0 | 0.00 | 0.32 | 0.00 | 91 | 1018.5 |
| 20260903154041 | 79 | 251 | 4.0 | 9.0 | 0.00 | 0.32 | 0.00 | 93 | 1018.0 |
| 20260903153026 | 79 | 254 | 2.0 | 11.0 | 0.00 | 0.32 | 0.00 | 94 | 1017.2 |
| 20260903152021 | 79 | 261 | 3.0 | 10.0 | 0.00 | 0.32 | 0.00 | 95 | 1017.4 |
| 20260903151049 | 78 | 259 | 4.0 | 9.0 | 0.00 | 0.32 | 0.00 | 95 | 1016.9 |
| 20260903150014 | 78 | 249 | 1.0 | 7.0 | 0.00 | 0.32 | 0.00 | 96 | 1016.9 |
| 20260903145036 | 78 | 223 | 0.0 | 5.0 | 0.00 | 0.32 | 0.00 | 96 | 1016.7 |
| 20260903144019 | 77 | 234 | 1.0 | 6.0 | 0.00 | 0.32 | 0.00 | 96 | 1016.7 |
| 20260903143033 | 77 | 236 | 1.0 | 7.0 | 0.00 | 0.32 | 0.00 | 96 | 1016.6 |
| 20260903142026 | 77 | 153 | 2.0 | 8.0 | 0.00 | 0.32 | 0.00 | 97 | 1016.6 |
| 20260903141019 | 77 | 234 | 0.0 | 3.0 | 0.00 | 0.32 | 0.00 | 97 | 1016.4 |
| 20260903140026 | 76 | 234 | 0.0 | 5.0 | 0.00 | 0.32 | 0.00 | 97 | 1016.4 |
| 20260903135041 | 76 | 196 | 1.0 | 5.0 | 0.00 | 0.32 | 0.00 | 97 | 1016.1 |
| 20260903134014 | 76 | 111 | 0.0 | 3.0 | 0.00 | 0.32 | 0.00 | 96 | 1015.9 |
| 20260903133028 | 76 | 173 | 0.0 | 0.0 | 0.00 | 0.32 | 0.00 | 96 | 1016.4 |
| 20260903132023 | 76 | 208 | 1.0 | 3.0 | 0.00 | 0.32 | 0.00 | 96 | 1017.0 |
| 20260903131018 | 76 | 214 | 0.0 | 0.0 | 0.00 | 0.32 | 0.00 | 97 | 1017.2 |
| 20260903130026 | 75 | 214 | 0.0 | 2.0 | 0.00 | 0.32 | 0.00 | 97 | 1017.5 |
| 20260903125021 | 75 | 214 | 0.0 | 2.0 | 0.00 | 0.32 | 0.00 | 96 | 1017.5 |
| 20260903124016 | 75 | 215 | 0.0 | 1.0 | 0.00 | 0.32 | 0.00 | 96 | 1017.5 |
| 20260903123050 | 75 | 215 | 0.0 | 1.0 | 0.00 | 0.32 | 0.00 | 96 | 1017.8 |
| 20260903122043 | 75 | 216 | 0.0 | 0.0 | 0.00 | 0.32 | 0.00 | 96 | 1018.1 |
| 20260903121015 | 75 | 216 | 0.0 | 0.0 | 0.00 | 0.32 | 0.00 | 96 | 1018.4 |
| 20260903120022 | 75 | 216 | 0.0 | 0.0 | 0.00 | 0.32 | 0.00 | 96 | 1018.6 |
| 20260903115029 | 75 | 216 | 0.0 | 0.0 | 0.00 | 0.32 | 0.00 | 96 | 1018.8 |
| 20260903114022 | 75 | 216 | 0.0 | 0.0 | 0.00 | 0.32 | 0.00 | 96 | 1019.0 |
| 20260903113036 | 75 | 216 | 0.0 | 0.0 | 0.00 | 0.32 | 0.00 | 96 | 1018.9 |
| 20260903112030 | 75 | 216 | 0.0 | 0.0 | 0.00 | 0.32 | 0.00 | 96 | 1018.6 |
| 20260903111024 | 75 | 216 | 0.0 | 1.0 | 0.00 | 0.32 | 0.00 | 96 | 1018.1 |
| 20260903110033 | 75 | 218 | 0.0 | 0.0 | 0.00 | 0.32 | 0.00 | 96 | 1018.2 |
| 20260903105026 | 75 | 219 | 0.0 | 0.0 | 0.00 | 0.32 | 0.00 | 96 | 1017.9 |
| 20260903104021 | 75 | 218 | 0.0 | 0.0 | 0.00 | 0.32 | 0.00 | 96 | 1017.6 |
| 20260903103034 | 75 | 218 | 0.0 | 0.0 | 0.00 | 0.32 | 0.00 | 96 | 1017.6 |
| 20260903102048 | 75 | 218 | 0.0 | 0.0 | 0.00 | 0.32 | 0.00 | 96 | 1017.6 |
| 20260903101041 | 74 | 218 | 0.0 | 0.0 | 0.00 | 0.32 | 0.00 | 96 | 1017.5 |
| 20260903100026 | 74 | 213 | 0.0 | 3.0 | 0.00 | 0.32 | 0.00 | 96 | 1017.2 |
| 20260903095039 | 74 | 193 | 0.0 | 0.0 | 0.00 | 0.32 | 0.00 | 96 | 1016.5 |
| 20260903094013 | 74 | 193 | 0.0 | 0.0 | 0.00 | 0.32 | 0.00 | 96 | 1016.5 |
| 20260903093028 | 74 | 193 | 0.0 | 0.0 | 0.00 | 0.32 | 0.00 | 96 | 1016.6 |
| 20260903092041 | 74 | 193 | 0.0 | 0.0 | 0.00 | 0.32 | 0.00 | 96 | 1016.8 |
| 20260903091014 | 74 | 193 | 0.0 | 0.0 | 0.00 | 0.32 | 0.00 | 96 | 1016.8 |
| 20260903090020 | 74 | 193 | 0.0 | 0.0 | 0.00 | 0.32 | 0.00 | 96 | 1017.1 |
| 20260903085016 | 74 | 193 | 0.0 | 0.0 | 0.00 | 0.32 | 0.00 | 96 | 1016.9 |
| 20260903084048 | 74 | 193 | 0.0 | 0.0 | 0.00 | 0.32 | 0.00 | 96 | 1016.8 |
| 20260903083023 | 74 | 193 | 0.0 | 0.0 | 0.00 | 0.32 | 0.00 | 96 | 1017.0 |
| 20260903082018 | 74 | 193 | 0.0 | 0.0 | 0.00 | 0.32 | 0.00 | 96 | 1017.1 |
| 20260903081032 | 74 | 193 | 0.0 | 0.0 | 0.00 | 0.32 | 0.00 | 96 | 1017.0 |
| 20260903080018 | 74 | 193 | 0.0 | 0.0 | 0.00 | 0.32 | 0.00 | 96 | 1016.9 |
| 20260903075033 | 74 | 193 | 0.0 | 0.0 | 0.00 | 0.32 | 0.00 | 96 | 1016.9 |
| 20260903074026 | 74 | 193 | 0.0 | 0.0 | 0.00 | 0.32 | 0.00 | 96 | 1017.0 |
| 20260903073020 | 74 | 193 | 0.0 | 0.0 | 0.00 | 0.32 | 0.00 | 96 | 1017.3 |
| 20260903072033 | 74 | 193 | 0.0 | 0.0 | 0.00 | 0.32 | 0.00 | 96 | 1017.3 |
| 20260903071018 | 74 | 193 | 0.0 | 0.0 | 0.00 | 0.32 | 0.00 | 95 | 1017.1 |
| 20260903070054 | 74 | 193 | 0.0 | 0.0 | 0.00 | 0.32 | 0.00 | 95 | 1016.7 |
| 20260903065026 | 74 | 193 | 0.0 | 0.0 | 0.00 | 0.32 | 0.00 | 95 | 1016.7 |
| 20260903064022 | 74 | 193 | 0.0 | 0.0 | 0.00 | 0.32 | 0.00 | 95 | 1016.6 |
| 20260903063036 | 74 | 193 | 0.0 | 0.0 | 0.00 | 0.32 | 0.00 | 95 | 1016.5 |
| 20260903062028 | 73 | 193 | 0.0 | 0.0 | 0.00 | 0.32 | 0.00 | 95 | 1016.6 |
| 20260903061042 | 73 | 193 | 0.0 | 0.0 | 0.00 | 0.32 | 0.00 | 95 | 1016.7 |
| 20260903060029 | 73 | 193 | 0.0 | 0.0 | 0.00 | 0.32 | 0.00 | 95 | 1016.6 |
| 20260903055015 | 73 | 193 | 0.0 | 0.0 | 0.00 | 0.32 | 0.00 | 95 | 1016.7 |
| 20260903054038 | 73 | 193 | 0.0 | 0.0 | 0.00 | 0.32 | 0.00 | 95 | 1016.8 |
| 20260903053023 | 73 | 193 | 0.0 | 0.0 | 0.00 | 0.32 | 0.00 | 95 | 1016.9 |
| 20260903052015 | 73 | 193 | 0.0 | 0.0 | 0.00 | 0.32 | 0.00 | 95 | 1017.1 |
| 20260903051029 | 73 | 193 | 0.0 | 0.0 | 0.00 | 0.32 | 0.00 | 95 | 1017.0 |
| 20260903050036 | 73 | 193 | 0.0 | 0.0 | 0.00 | 0.32 | 0.00 | 95 | 1016.9 |
| 20260903045027 | 73 | 193 | 0.0 | 0.0 | 0.00 | 0.32 | 0.00 | 94 | 1017.1 |
| 20260903044022 | 73 | 193 | 0.0 | 0.0 | 0.00 | 0.32 | 0.00 | 94 | 1017.3 |
| 20260903043015 | 73 | 193 | 0.0 | 0.0 | 0.00 | 0.32 | 0.00 | 94 | 1017.3 |
| 20260903042026 | 73 | 193 | 0.0 | 0.0 | 0.00 | 0.32 | 0.00 | 94 | 1017.6 |
| 20260903041019 | 73 | 193 | 0.0 | 0.0 | 0.00 | 0.32 | 0.00 | 94 | 1017.7 |
| 20260903040026 | 73 | 193 | 0.0 | 0.0 | 0.00 | 0.32 | 0.00 | 94 | 1018.0 |
| 20260903035018 | 73 | 193 | 0.0 | 0.0 | 0.00 | 0.32 | 0.32 | 94 | 1018.0 |
| 20260903034033 | 73 | 193 | 0.0 | 0.0 | 0.00 | 0.32 | 0.32 | 94 | 1017.9 |
| 20260903033026 | 73 | 193 | 0.0 | 0.0 | 0.00 | 0.32 | 0.32 | 94 | 1017.7 |
| 20260903032039 | 73 | 193 | 0.0 | 0.0 | 0.00 | 0.32 | 0.32 | 94 | 1017.9 |
| 20260903031023 | 73 | 193 | 0.0 | 0.0 | 0.00 | 0.32 | 0.32 | 93 | 1017.6 |
| 20260903030039 | 73 | 193 | 0.0 | 0.0 | 0.00 | 0.32 | 0.32 | 93 | 1017.8 |
| 20260903025053 | 73 | 193 | 0.0 | 0.0 | 0.00 | 0.32 | 0.32 | 93 | 1017.7 |
| 20260903024027 | 73 | 193 | 0.0 | 0.0 | 0.00 | 0.32 | 0.32 | 93 | 1018.0 |
| 20260903023019 | 73 | 193 | 0.0 | 0.0 | 0.00 | 0.32 | 0.32 | 93 | 1018.3 |
| 20260903022033 | 72 | 193 | 0.0 | 0.0 | 0.00 | 0.32 | 0.32 | 92 | 1018.3 |
| 20260903021018 | 72 | 193 | 0.0 | 0.0 | 0.00 | 0.32 | 0.32 | 92 | 1018.0 |
| 20260903020033 | 72 | 193 | 0.0 | 0.0 | 0.00 | 0.32 | 0.32 | 92 | 1017.9 |
| 20260903015046 | 72 | 193 | 0.0 | 0.0 | 0.00 | 0.32 | 0.32 | 92 | 1018.0 |
| 20260903014019 | 73 | 193 | 0.0 | 0.0 | 0.00 | 0.32 | 0.32 | 91 | 1018.0 |
| 20260903013034 | 73 | 193 | 0.0 | 0.0 | 0.00 | 0.32 | 0.32 | 92 | 1017.9 |
| 20260903012016 | 73 | 193 | 0.0 | 0.0 | 0.00 | 0.32 | 0.32 | 92 | 1017.7 |
| 20260903011039 | 73 | 193 | 0.0 | 0.0 | 0.00 | 0.32 | 0.32 | 91 | 1017.6 |
| 20260903010045 | 73 | 193 | 0.0 | 0.0 | 0.00 | 0.32 | 0.32 | 91 | 1017.4 |
| 20260903005014 | 73 | 193 | 0.0 | 0.0 | 0.00 | 0.32 | 0.32 | 91 | 1017.5 |
| 20260903004022 | 73 | 193 | 0.0 | 0.0 | 0.00 | 0.32 | 0.32 | 90 | 1017.9 |
| 20260903003035 | 73 | 193 | 0.0 | 0.0 | 0.00 | 0.32 | 0.32 | 90 | 1017.6 |
| 20260903002028 | 74 | 193 | 0.0 | 0.0 | 0.00 | 0.32 | 0.32 | 90 | 1017.5 |
| 20260903001014 | 74 | 193 | 0.0 | 0.0 | 0.00 | 0.32 | 0.32 | 90 | 1017.6 |
| 20260903000026 | 74 | 193 | 0.0 | 0.0 | 0.00 | 0.32 | 0.32 | 90 | 1017.8 |
| 20260902235039 | 74 | 193 | 0.0 | 0.0 | 0.00 | 0.32 | 0.32 | 90 | 1017.7 |
| 20260902234034 | 75 | 193 | 0.0 | 0.0 | 0.00 | 0.32 | 0.32 | 90 | 1017.6 |
| 20260902233048 | 75 | 193 | 0.0 | 0.0 | 0.00 | 0.32 | 0.32 | 90 | 1017.5 |
| 20260902232040 | 75 | 193 | 0.0 | 0.0 | 0.00 | 0.32 | 0.32 | 90 | 1017.6 |
| 20260902231025 | 75 | 193 | 0.0 | 0.0 | 0.00 | 0.32 | 0.32 | 90 | 1017.7 |
| 20260902230041 | 75 | 193 | 0.0 | 0.0 | 0.00 | 0.32 | 0.32 | 91 | 1018.2 |
| 20260902225014 | 75 | 193 | 0.0 | 0.0 | 0.00 | 0.32 | 0.32 | 91 | 1017.8 |
| 20260902224027 | 75 | 193 | 0.0 | 0.0 | 0.00 | 0.32 | 0.32 | 92 | 1017.6 |
| 20260902223041 | 76 | 193 | 0.0 | 0.0 | 0.00 | 0.32 | 0.32 | 93 | 1017.6 |
| 20260902222025 | 75 | 193 | 0.0 | 0.0 | 0.00 | 0.32 | 0.32 | 93 | 1017.6 |
| 20260902221020 | 75 | 193 | 0.0 | 0.0 | 0.00 | 0.32 | 0.32 | 93 | 1017.3 |
| 20260902220028 | 75 | 193 | 0.0 | 0.0 | 0.00 | 0.32 | 0.32 | 93 | 1017.7 |
| 20260902215050 | 74 | 193 | 0.0 | 0.0 | 0.00 | 0.32 | 0.32 | 94 | 1017.9 |
| 20260902214015 | 74 | 193 | 0.0 | 0.0 | 0.00 | 0.32 | 0.32 | 93 | 1018.2 |
| 20260902213027 | 74 | 193 | 0.0 | 0.0 | 0.00 | 0.32 | 0.32 | 93 | 1018.4 |
| 20260902212021 | 74 | 193 | 0.0 | 0.0 | 0.00 | 0.32 | 0.32 | 93 | 1018.3 |
| 20260902211016 | 74 | 193 | 0.0 | 0.0 | 0.00 | 0.32 | 0.32 | 93 | 1018.4 |
| 20260902210040 | 74 | 193 | 0.0 | 0.0 | 0.00 | 0.32 | 0.32 | 93 | 1018.3 |
| 20260902205013 | 74 | 193 | 0.0 | 0.0 | 0.00 | 0.32 | 0.32 | 93 | 1018.1 |
| 20260902204027 | 74 | 193 | 0.0 | 1.0 | 0.00 | 0.32 | 0.32 | 93 | 1018.1 |
| 20260902203041 | 74 | 192 | 0.0 | 0.0 | 0.00 | 0.32 | 0.32 | 93 | 1017.9 |
| 20260902202033 | 74 | 192 | 0.0 | 2.0 | 0.00 | 0.32 | 0.32 | 93 | 1018.3 |
| 20260902201035 | 74 | 191 | 0.0 | 2.0 | 0.00 | 0.32 | 0.32 | 93 | 1018.3 |